Location: Newark
(33.6439°N, 114.9881°W)
Time: 22:08:01
(UTC+00:00)

Tiros 1 - Pass Details

Date: 27 July 2019
Orbit: 631 x 664 km, 48.4° (Epoch: 24 August)

Event Time Altitude Azimuth Distance (km) Brightness Sun altitude
Rises 16:29:44 0° 225° (SW) 2,950 10.3 44.1°
Reaches altitude 10° 16:32:03 10° 224° (SW) 2,048 9.6 44.6°
Maximum altitude 16:36:46 75° 139° (SE) 679 8.4 45.5°
Drops below altitude 10° 16:41:33 10° 55° (NE) 2,074 10.4 46.5°
Sets 16:43:55 0° 53° (NE) 2,991 11.0 47.0°
